User: anonymous   Login
Location: Mentone
(34.5413°N, 85.5351°W)
Time: 23:12:57
(UTC-05:00)
Language:

Cosmos 1703 - Orbit

View from above orbital plane
View from above orbital plane
View from above satellite
View from above satellite

Ground track
Ground track

The orbit data is extracted from the following two-line orbital elements,

1 16262U 85108A   17114.95328426 +.00000927 +00000-0 +54684-4 0  9991
2 16262 082.4751 302.2311 0013774 097.1957 263.0839 15.10284269710601
Epoch (UTC): 24 April 2017 22:52:43
Eccentricity: 0.0013774
inclination: 82.4751°
perigee height: 526 km
apogee height: 545 km
right ascension of ascending node: 302.2311°
argument of perigee: 97.1957°
revolutions per day: 15.10284269
mean anomaly at epoch: 263.0839°
orbit number at epoch: 71060

The dashed part of the orbit path shows where the satellite is in the earth's shadow,  

DLR